Regional Weather Roundup
Issued by NWS

Home | Current Version | Previous Version | Graphics & Text | Print | Product List | Glossary On
Versions: 1 2 3 4 5 6 7 8 9 10 11 12 13 14 15 16 17 18 19 20 21 22 23 24 25 26 27 28 29 30 31 32 33 34 35 36 37 38 39 40 41 42 43 44 45 46 47 48 49 50
000
ASUS45 KBOI 190010
RWRID

IDAHO REGIONAL WEATHER ROUNDUP
NATIONAL WEATHER SERVICE BOISE ID
600 PM MDT WED OCT 18 2017

NOTE: "FAIR" INDICATES FEW OR NO CLOUDS BELOW 12000 FEET
WITH NO SIGNIFICANT WEATHER AND/OR OBSTRUCTIONS TO VISIBILITY

IDZ012-014-190100-
SOUTHWEST IDAHO


CITY           SKY/WX    TMP DP  RH WIND       PRES   REMARKS
BOISE          PTCLDY    75  26  16 SE10      29.95F
CALDWELL       PTCLDY    71  39  31 NW3       29.94F
MOUNTAIN HOME  CLEAR     73  26  17 SE10      29.95F
$$

IDZ016-017-190100-
SOUTHCENTRAL IDAHO


CITY           SKY/WX    TMP DP  RH WIND       PRES   REMARKS
BURLEY         CLEAR     70  25  18 NE5       30.03F
JEROME         CLEAR     69  32  25 N7        30.04F
TWIN FALLS     CLEAR     69  28  21 N6        30.04F
$$

IDZ019>023-190100-
SOUTHEAST IDAHO


CITY           SKY/WX    TMP DP  RH WIND       PRES   REMARKS
IDAHO FALLS    CLEAR     62  31  31 SW10      30.09F
POCATELLO      CLEAR     66  30  26 NE3       30.08F
REXBURG        CLEAR     62  24  23 SW12G21   30.09F
$$

IDZ006-010-011-018-031-032-190100-
CENTRAL IDAHO MOUNTAINS


CITY           SKY/WX    TMP DP  RH WIND       PRES   REMARKS
MCCALL         CLOUDY    57  31  37 S9        30.02F
HAILEY         CLEAR     63  27  25 S6        30.11F
STANLEY          N/A     57  26  30 S7        30.11F
SALMON         CLOUDY    66  31  27 W7        29.95S
CHALLIS        PTCLDY    65  27  23 S5        30.01F
$$

IDZ002-004-006-007-026-190100-
NORTHERN IDAHO


CITY           SKY/WX    TMP DP  RH WIND       PRES   REMARKS
LEWISTON       MOCLDY    59  47  64 E3        29.85F
LOWELL           N/A     53  49  86 CALM      29.91F
COEUR D`ALENE  RAIN      50  48  93 S9        29.84F
MULLAN PASS    LGT RAIN  39  39 100 SW8G23    29.92F VSB 1/4 WCI  33
$$



USA.gov is the U.S. government's official web portal to all federal, state and local government web resources and services.